Tracking 18793 objects as of 25-September-2017
HD Live streaming from Space Station
objects crossing your sky now

COSMOS 374

Track COSMOS 374 now!
10-day predictions
COSMOS 374 is classified as:


NORAD ID: 4594
Int'l Code: 1970-089A
Perigee: 537.5 km
Apogee: 2,041.3 km
Inclination: 62.9 °
Period: 111.2 minutes
Semi major axis: 7660 km
RCS: 0.5589 m2 (medium)
Launch date: October 23, 1970
Source: Commonwealth of Independent States (former USSR) (CIS)
Launch site: TYURATAM MISSILE AND SPACE COMPLEX (TTMTR)
aabbcc
Your satellite tracking list
Your tracking list is empty





NASA's NSSDC Master Catalog

Two Line Element Set (TLE):
1  4594U 70089A   17267.63948532 -.00000104 +00000-0 +30417-5 0  9995
2  4594 062.9335 307.6516 0981499 131.3476 237.6283 12.94871552256092
Source of the keplerian elements: AFSPC